Total_Precipitation_Accumulation
0.40 0.27 0.31 0.31 0.24 0.21 0.21 0.29 0.37 0.31 0.27 0.28 0.31 0.32 0.28 0.25 0.22 0.21 0.22 0.22 0.23 0.29 0.35 0.42 0.46 0.52 0.56 0.55 0.41 0.28 0.23 0.21 0.18 0.18 0.23 0.30 0.34 0.36 0.43 0.40 0.46 0.49 0.57
0.30 0.26 0.32 0.30 0.26 0.26 0.27 0.33 0.30 0.25 0.24 0.24 0.25 0.31 0.28 0.24 0.22 0.23 0.25 0.28 0.31 0.35 0.35 0.36 0.41 0.49 0.47 0.40 0.32 0.24 0.20 0.18 0.20 0.26 0.31 0.40 0.54 0.58 0.66 0.60 0.62 0.73 0.59
0.25 0.30 0.34 0.34 0.31 0.29 0.27 0.29 0.24 0.22 0.25 0.28 0.28 0.32 0.35 0.26 0.22 0.23 0.25 0.33 0.40 0.42 0.39 0.36 0.36 0.41 0.41 0.32 0.26 0.23 0.24 0.28 0.33 0.44 0.66 0.74 0.75 0.81 0.86 0.78 0.72 0.61 0.48
0.25 0.32 0.32 0.34 0.35 0.32 0.29 0.29 0.26 0.27 0.28 0.33 0.37 0.38 0.41 0.31 0.26 0.27 0.29 0.33 0.41 0.44 0.39 0.36 0.33 0.36 0.36 0.30 0.26 0.25 0.29 0.39 0.49 0.66 1.03 0.98 0.85 0.96 0.90 0.82 0.77 0.70 0.61
0.29 0.31 0.31 0.30 0.35 0.40 0.40 0.38 0.37 0.34 0.37 0.41 0.46 0.50 0.54 0.43 0.31 0.32 0.35 0.35 0.40 0.44 0.45 0.40 0.33 0.31 0.33 0.31 0.28 0.28 0.30 0.40 0.62 0.92 1.30 1.45 1.41 1.29 1.00 0.86 0.82 0.79 0.79
0.35 0.39 0.34 0.35 0.39 0.53 0.54 0.49 0.47 0.45 0.46 0.52 0.55 0.54 0.58 0.51 0.42 0.41 0.44 0.43 0.45 0.48 0.53 0.50 0.46 0.36 0.33 0.42 0.32 0.33 0.38 0.54 0.67 0.99 1.36 1.68 1.65 1.54 1.20 0.99 0.88 0.93 0.93
0.46 0.50 0.45 0.44 0.46 0.58 0.57 0.55 0.51 0.51 0.51 0.60 0.62 0.58 0.59 0.54 0.46 0.47 0.53 0.53 0.56 0.59 0.56 0.51 0.49 0.43 0.39 0.47 0.47 0.43 0.52 0.71 0.79 1.07 1.38 1.50 1.63 1.58 1.39 1.25 1.05 0.92 0.91
0.51 0.50 0.46 0.45 0.47 0.61 0.65 0.60 0.56 0.53 0.58 0.70 0.73 0.67 0.60 0.57 0.56 0.60 0.62 0.65 0.70 0.66 0.56 0.52 0.50 0.47 0.50 0.51 0.52 0.55 0.61 0.69 0.66 0.90 1.23 1.41 1.35 1.37 1.53 1.49 1.24 1.04 0.93
0.59 0.57 0.57 0.63 0.62 0.63 0.64 0.67 0.71 0.63 0.69 0.79 0.78 0.80 0.70 0.65 0.73 0.79 0.77 0.77 0.78 0.70 0.59 0.56 0.57 0.50 0.54 0.59 0.55 0.58 0.62 0.66 0.62 0.85 1.11 1.55 1.30 1.41 1.64 1.51 1.31 1.19 1.06
1.11 1.16 0.98 0.96 0.88 0.73 0.65 0.65 0.67 0.69 0.82 0.94 0.86 0.80 0.78 0.76 0.79 0.84 0.81 0.80 0.73 0.63 0.59 0.61 0.64 0.59 0.55 0.53 0.51 0.55 0.60 0.53 0.50 0.71 1.24 1.45 1.39 1.66 1.82 1.65 1.44 1.33 1.25
1.65 1.77 1.47 1.08 0.92 0.94 0.82 0.71 0.77 0.75 0.79 0.87 0.86 0.82 0.87 1.09 1.19 1.17 0.94 0.93 0.83 0.74 0.72 0.72 0.68 0.61 0.55 0.52 0.59 0.67 0.63 0.49 0.66 0.91 1.21 1.41 1.56 1.89 2.04 1.83 1.62 1.50 1.40
1.99 1.95 1.78 1.36 1.35 1.48 1.19 1.08 1.03 0.96 0.95 0.95 1.05 1.04 1.13 1.54 1.62 1.35 1.33 1.19 1.12 0.99 0.92 0.91 0.88 0.76 0.65 0.63 0.79 0.82 0.62 0.60 0.89 1.13 1.34 1.68 1.89 2.11 2.08 1.85 1.69 1.63 1.61
2.19 1.81 1.52 1.46 1.44 1.57 1.53 1.46 1.41 1.41 1.49 1.51 1.53 1.51 1.67 1.75 1.58 1.38 1.56 1.47 1.46 1.31 1.27 1.35 1.19 0.98 0.96 1.03 1.06 0.97 0.84 0.90 1.10 1.22 1.45 1.80 2.01 2.18 2.23 2.01 1.79 1.73 1.77
2.10 1.92 1.78 1.76 1.69 1.77 2.03 2.02 1.92 1.93 1.87 1.77 1.78 1.72 1.96 2.09 1.96 1.93 1.97 1.88 1.99 2.06 2.03 1.78 1.58 1.33 1.21 1.14 1.10 1.11 1.15 1.17 1.29 1.45 1.72 1.82 1.88 1.98 2.11 2.11 2.04 1.96 1.90
2.32 2.12 2.02 2.06 2.04 2.03 2.37 2.57 2.38 2.34 2.18 2.03 1.98 1.98 2.05 2.11 2.14 2.29 2.31 2.43 2.32 2.20 2.11 2.01 1.72 1.66 1.50 1.33 1.25 1.20 1.33 1.46 1.53 1.72 1.80 1.86 1.80 1.81 2.02 2.22 2.29 2.30 2.19
2.66 2.39 2.18 2.19 2.10 2.09 2.25 2.48 2.57 2.48 2.49 2.42 2.28 2.19 2.20 2.31 2.47 2.52 2.59 2.55 2.36 2.15 2.14 2.15 2.00 1.96 1.84 1.69 1.50 1.48 1.50 1.52 1.63 1.72 1.83 1.99 1.72 1.62 1.86 2.16 2.37 2.45 2.51
2.95 2.90 2.66 2.54 2.47 2.42 2.36 2.36 2.42 2.51 2.69 2.63 2.62 2.63 2.46 2.39 2.50 2.58 2.72 2.68 2.54 2.43 2.35 2.23 2.22 2.19 2.07 1.95 1.85 1.79 1.76 1.69 1.63 1.69 1.89 2.06 1.98 1.89 1.94 2.03 2.18 2.34 2.51
3.51 3.39 2.91 2.57 2.72 2.77 2.80 2.78 2.85 2.85 2.95 2.87 2.69 2.79 2.71 2.70 2.64 2.65 2.62 2.51 2.48 2.42 2.54 2.58 2.53 2.48 2.34 2.26 2.20 1.99 1.94 1.91 1.77 1.77 1.86 1.95 2.20 2.26 2.21 2.03 1.99 2.11 2.31
4.13 3.86 3.16 2.85 2.96 3.08 3.06 3.20 3.39 3.49 3.44 3.29 3.13 3.11 2.96 3.01 2.94 2.89 2.95 2.88 2.75 2.77 2.76 2.59 2.65 2.72 2.73 2.61 2.28 2.11 1.96 1.97 1.92 1.81 1.85 1.84 2.04 2.27 2.27 2.13 2.05 2.04 2.17
4.24 4.11 3.62 3.34 3.50 3.45 3.36 3.49 3.62 3.68 3.67 3.73 3.73 3.68 3.46 3.35 3.39 3.48 3.52 3.44 3.20 3.15 3.16 3.21 3.15 2.89 2.70 2.61 2.31 2.24 2.09 1.91 1.88 1.83 1.76 1.76 1.81 1.79 1.91 1.93 2.02 1.99 2.01
3.48 3.53 3.70 3.69 3.73 3.76 3.68 3.69 3.87 4.00 4.03 4.00 4.12 4.17 3.99 3.89 3.93 4.08 4.09 4.02 3.76 3.55 3.43 3.38 3.29 3.05 2.76 2.56 2.52 2.38 2.11 1.87 1.85 1.79 1.74 1.73 1.60 1.55 1.69 1.87 1.84 1.77 1.80
3.25 3.40 3.55 3.55 3.77 4.03 4.37 4.80 5.05 5.16 5.08 4.92 4.85 4.76 4.62 4.50 4.44 4.40 4.41 4.20 3.92 3.76 3.54 3.30 3.20 3.03 2.79 2.67 2.60 2.63 2.31 2.09 1.81 1.60 1.64 1.61 1.55 1.53 1.50 1.52 1.63 1.65 1.62
2.86 3.12 3.28 3.54 4.01 4.53 5.15 5.90 6.25 6.01 5.61 5.41 5.10 5.03 4.83 4.59 4.50 4.50 4.27 4.05 3.82 3.61 3.44 3.23 3.14 3.06 2.80 2.68 2.65 2.76 2.52 2.25 2.01 1.81 1.63 1.52 1.52 1.54 1.51 1.49 1.50 1.59 1.58
2.55 2.97 3.34 3.75 4.32 4.99 5.54 6.03 6.30 6.20 5.91 5.64 5.20 4.81 4.45 4.12 3.93 3.83 3.72 3.49 3.34 3.20 3.03 2.85 2.85 2.83 2.71 2.53 2.46 2.31 2.20 2.10 2.06 1.90 1.71 1.53 1.50 1.53 1.49 1.43 1.46 1.54 1.58
2.40 2.86 3.32 3.74 4.35 4.91 5.42 5.80 6.03 6.06 5.93 5.56 4.89 4.29 3.90 3.57 3.33 3.05 2.82 2.71 2.70 2.63 2.44 2.25 2.21 2.21 2.19 2.14 2.12 2.01 1.94 1.88 1.85 1.79 1.72 1.63 1.56 1.46 1.38 1.35 1.34 1.38 1.45
2.27 2.71 3.08 3.40 4.10 4.81 5.34 5.71 5.94 5.94 5.67 5.06 4.40 3.86 3.53 3.25 2.98 2.71 2.53 2.36 2.26 2.15 2.01 1.84 1.73 1.73 1.76 1.79 1.83 1.81 1.70 1.64 1.63 1.66 1.59 1.52 1.49 1.42 1.34 1.29 1.25 1.26 1.31